Location: Unspecified
(0.0000°N, 0.0000°E)
Time: 11:47:45
(UTC+02:00)

Meteor 2-8 Rocket - Visible Passes

Search period start: 02 July 2015 00:00
Search period end: 12 July 2015 00:00
Orbit: 936 x 958 km, 82.5° (Epoch: 01 July)

Date Brightness Start Highest point End Pass type
(mag) Time Alt. Az. Time Alt. Az. Time Alt. Az.
02 Jul 5.8 22:15:52 10° NNE 22:18:42 27° NNE 22:18:42 27° NNE visible
03 Jul 5.4 22:32:31 10° N 22:36:09 38° N 22:36:09 38° N visible
04 Jul 6.3 21:09:04 10° ENE 21:09:32 11° ENE 21:09:32 11° ENE visible
04 Jul 5.7 22:49:40 10° NNW 22:53:38 37° NW 22:53:38 37° NW visible
05 Jul 5.7 21:23:19 10° NE 21:27:04 22° ENE 21:27:04 22° ENE visible
05 Jul 6.3 23:07:23 10° NW 23:11:11 26° WNW 23:11:11 26° WNW visible
06 Jul 4.8 21:39:08 10° NNE 21:44:40 41° E 21:44:40 41° E visible
06 Jul 6.9 23:26:06 10° WNW 23:28:47 15° W 23:28:47 15° W visible
07 Jul 4.3 21:55:38 10° N 22:01:45 74° E 22:02:19 69° SE visible
08 Jul 4.8 22:12:35 10° NNW 22:18:40 62° W 22:20:02 49° SW visible
09 Jul 5.8 20:47:01 10° NE 20:50:51 18° E 20:53:41 14° ESE visible
09 Jul 5.8 22:30:05 10° NNW 22:35:36 34° W 22:37:48 26° SW visible
10 Jul 5.1 21:02:30 10° NNE 21:07:52 33° E 21:11:32 19° SE visible
10 Jul 6.7 22:48:20 10° NW 22:52:38 19° W 22:55:40 13° SW visible
11 Jul 4.4 21:18:47 10° N 21:24:49 60° E 21:29:28 18° SSE visible
